Theta_e
309 308 307 307 307 307 306 306 307 307 308 308 308 309 309 309 309 309 309 310 311 311 312 312 311 311 311 311 311 311 310 309 306 307 308 308 309 308 307 306 305 304 305
308 307 308 308 307 307 307 307 307 307 307 308 308 308 307 307 308 309 309 309 309 310 311 311 311 311 311 310 311 311 310 309 308 307 308 309 309 306 306 306 306 307 308
309 309 308 308 308 308 306 307 307 308 308 308 307 306 304 307 308 308 309 309 311 311 310 310 307 308 310 310 310 309 309 308 308 309 309 310 309 307 307 309 310 310 310
309 310 309 309 309 309 309 308 306 307 308 308 307 306 305 306 308 309 310 310 310 310 309 308 307 307 308 311 310 309 309 309 310 311 311 311 310 310 310 310 311 311 311
310 310 310 310 309 309 310 309 308 307 307 308 307 306 306 306 308 307 308 309 309 309 310 309 309 309 309 310 309 309 308 308 310 311 310 310 310 310 310 311 311 311 310
311 311 310 310 311 311 310 309 308 308 308 308 308 306 306 307 308 307 308 308 309 309 310 310 310 310 311 311 312 311 309 309 310 310 310 310 310 311 308 306 308 309 309
311 311 310 309 309 310 310 311 311 311 311 310 309 308 308 308 308 308 308 309 309 309 311 311 310 311 311 311 311 311 311 311 309 309 309 310 309 309 309 308 308 308 310
310 311 311 311 311 311 312 312 312 312 311 309 308 308 308 309 310 311 311 311 311 310 310 310 310 309 308 310 311 311 311 310 311 310 310 311 311 312 312 312 311 310 311
311 312 312 311 311 312 312 313 312 312 312 309 308 309 309 309 309 310 311 312 311 307 306 308 307 307 307 308 309 310 311 311 311 310 311 312 312 312 312 312 311 310 311
312 312 312 312 313 313 312 312 312 311 312 311 311 310 310 308 307 308 311 311 311 311 310 309 309 309 309 310 310 310 310 309 310 312 312 312 312 312 312 313 312 311 310
312 312 312 312 311 308 309 309 312 312 312 312 309 307 304 305 306 307 309 311 312 311 311 308 309 309 310 311 311 309 308 308 310 309 308 307 306 307 310 312 312 312 312
314 313 313 313 311 311 303 306 308 311 312 311 308 305 304 302 304 306 308 308 308 308 307 309 310 310 310 309 307 306 307 309 307 307 306 306 306 307 305 304 304 303 307
312 313 313 313 310 308 303 302 305 306 307 306 309 306 304 302 302 304 306 307 307 307 310 309 309 309 308 306 305 306 306 306 306 305 304 304 304 305 303 302 302 303 304
312 312 312 312 312 313 308 302 300 300 299 303 303 300 298 299 300 302 304 306 307 308 308 308 308 307 307 307 305 305 305 305 305 303 302 303 303 303 303 301 300 300 303
313 312 312 312 313 313 310 307 303 300 297 298 298 298 297 299 301 302 303 304 306 308 307 307 307 307 306 305 306 304 303 303 303 304 301 302 302 302 302 301 299 299 299
313 312 313 313 313 312 312 308 304 302 301 302 303 303 300 300 303 303 304 304 305 305 305 306 306 306 305 304 305 302 302 302 302 303 301 300 301 302 301 300 299 299 298
312 313 313 311 311 311 311 311 307 304 302 301 302 302 303 303 302 302 304 303 303 303 303 303 305 304 303 303 304 302 301 300 301 302 301 300 300 300 300 300 299 298 298
313 313 313 313 313 314 312 311 311 309 306 303 301 302 304 305 302 301 301 303 302 301 302 302 302 302 302 300 300 299 299 299 300 301 300 299 299 299 300 299 298 298 298
312 313 312 313 313 312 310 309 310 311 309 305 302 302 304 305 302 301 300 300 300 300 301 301 300 300 299 298 298 297 295 297 298 299 299 298 298 299 298 299 298 297 297
313 313 312 310 310 312 308 308 307 309 309 304 303 304 305 302 301 300 300 300 299 299 300 300 299 298 298 297 296 293 293 296 297 298 298 297 297 298 298 299 297 297 297
313 312 310 309 311 311 307 308 305 306 306 304 303 304 304 303 301 300 300 299 299 299 299 299 298 298 297 296 295 292 293 295 295 296 298 297 297 298 298 298 298 297 296
313 312 311 311 311 310 307 308 307 304 305 305 304 303 303 304 301 300 300 299 299 299 299 298 298 297 295 293 293 291 291 294 295 296 297 297 296 297 297 297 296 296 296
312 312 312 311 312 310 308 308 308 305 304 304 304 304 303 305 302 301 300 299 299 298 298 298 297 297 295 291 291 291 291 293 294 295 296 297 296 296 296 297 296 296 296
311 312 312 311 312 312 312 307 307 305 304 303 303 303 304 305 305 303 300 299 299 298 298 298 297 297 296 292 290 290 290 291 294 295 297 295 296 295 296 296 295 295 295
313 313 311 311 312 312 312 312 311 307 305 303 303 302 303 303 305 303 300 299 299 298 298 297 297 296 296 293 290 290 290 291 293 295 297 296 295 295 295 295 295 295 294
313 312 312 312 312 312 312 312 312 310 306 303 303 302 302 302 304 304 301 299 298 298 298 297 297 296 295 294 290 290 290 291 293 295 296 295 295 294 294 295 294 294 294
Wind_Speed
16 18 20 17 18 14 15 14 14 13 13 12 12 11 10 11 10 10 11 12 14 15 13 13 12 8 7 5 3 2 3 1 0 3 5 7 9 8 7 6 4 7 9
16 15 17 17 19 16 14 13 12 12 11 9 9 8 8 8 8 11 11 10 11 13 13 10 9 7 8 7 6 5 4 4 2 2 5 6 4 3 3 3 6 10 13
17 17 16 18 17 17 14 13 12 11 10 9 7 9 10 7 9 10 10 12 12 12 10 8 7 5 5 5 4 3 3 4 5 5 5 5 2 2 5 7 9 11 12
17 18 17 15 13 14 14 16 12 9 11 10 7 9 9 8 10 11 12 12 12 11 11 9 8 8 6 5 5 4 3 5 6 7 5 5 5 6 8 11 11 9 12
15 18 16 14 12 13 13 14 14 13 10 10 8 9 9 10 10 10 11 11 10 8 10 11 9 9 10 8 7 5 4 3 4 5 4 4 4 5 6 9 12 14 9
17 16 16 14 14 14 12 13 16 15 13 13 14 11 11 11 11 10 8 8 8 8 9 9 9 7 8 6 5 3 2 1 1 3 4 5 7 7 8 10 11 8 5
16 16 16 15 15 13 13 13 14 14 16 14 13 13 14 12 10 11 10 9 8 7 7 7 7 7 8 7 4 2 4 6 7 7 9 8 10 8 11 12 11 11 10
12 13 14 13 13 13 14 13 13 14 15 13 13 13 14 13 12 12 10 8 6 3 3 4 3 6 7 7 5 4 6 7 6 8 13 17 17 17 17 16 15 15 15
12 14 13 13 14 18 17 17 15 12 11 12 11 12 13 13 12 11 9 8 5 3 3 4 5 7 7 8 9 11 11 12 11 10 12 14 18 22 21 18 15 9 9
12 11 10 11 13 15 12 14 12 12 11 8 9 9 10 12 13 13 10 9 5 5 5 8 7 8 9 11 12 13 16 15 14 11 5 9 10 6 11 17 17 17 12
11 12 11 12 13 13 11 10 7 7 7 7 8 8 10 10 11 12 15 14 10 9 9 12 13 11 12 13 11 11 12 14 15 17 18 18 18 16 10 9 9 10 13
9 10 10 12 12 7 8 6 8 7 5 4 5 5 8 9 8 8 9 11 10 11 14 13 11 9 9 10 13 12 13 12 14 15 18 19 18 14 14 14 13 13 10
7 7 9 10 10 10 12 7 4 5 6 6 1 4 7 9 7 7 7 8 9 13 13 17 17 17 15 15 14 14 16 15 15 17 17 18 16 12 13 16 14 17 16
8 9 11 11 10 7 5 7 7 5 4 2 3 5 8 8 8 9 8 8 10 11 13 13 14 14 14 13 11 15 16 17 16 16 16 16 15 12 12 14 16 17 16
8 9 13 15 17 15 8 4 2 5 6 6 6 5 6 8 10 13 11 9 8 9 10 11 12 13 13 13 14 12 15 16 19 13 16 17 17 15 12 11 15 19 17
11 12 15 20 20 16 13 11 7 2 1 3 6 8 7 6 10 13 9 10 9 10 12 11 10 11 11 12 12 12 14 16 19 12 15 18 17 15 14 11 13 18 16
11 16 20 16 18 17 16 10 15 11 7 4 2 2 5 5 7 10 8 10 10 9 11 11 9 9 10 12 12 11 13 14 17 14 16 18 16 16 13 10 12 18 18
14 16 19 20 23 26 16 7 13 16 13 9 4 4 1 2 4 6 5 3 7 14 11 9 9 10 11 12 10 11 11 12 13 16 15 17 19 14 13 9 12 17 17
13 18 20 21 25 20 5 1 9 15 15 12 6 3 1 1 4 2 4 6 7 11 11 12 11 11 10 9 10 11 10 10 12 14 13 16 18 13 15 8 10 15 16
13 16 18 23 26 10 5 3 1 7 14 12 6 4 4 6 5 4 3 4 5 8 8 9 8 7 7 8 10 11 11 10 12 14 13 15 16 15 15 8 10 13 16
14 19 21 27 24 13 6 2 3 3 13 12 6 5 3 6 6 5 3 3 2 3 5 4 5 8 8 8 9 10 10 10 12 14 12 13 15 15 14 10 9 12 13
13 17 21 25 24 11 7 4 3 1 4 12 10 7 5 7 8 6 4 3 2 2 1 2 5 8 9 9 9 9 9 9 11 14 13 11 13 14 14 9 10 12 12
14 16 20 20 23 13 14 10 6 7 5 9 7 10 9 11 10 7 5 4 4 4 3 2 5 7 9 8 8 8 9 8 9 13 11 9 11 12 12 9 9 13 10
14 14 16 14 14 18 17 13 9 11 8 10 9 8 9 10 11 8 6 5 6 6 5 3 4 6 8 10 9 8 8 7 7 11 8 8 8 9 10 11 8 11 10
14 14 12 16 14 16 9 11 9 13 14 14 11 9 7 7 12 12 9 7 7 8 8 5 3 4 8 11 9 8 8 7 6 10 5 4 7 6 7 8 6 7 10
18 15 12 11 13 14 12 13 5 10 14 16 14 12 10 9 11 13 12 8 7 8 9 8 5 4 8 11 10 9 8 7 5 7 4 3 6 7 4 6 8 4 7
Wind_Direction
17 26 24 20 20 21 24 28 31 28 29 34 37 55 56 54 54 59 56 60 82 79 88 85 87 84 81 64 58 79 79 50 44 328 298 323 332 318 299 307 264 265 285
22 21 22 21 24 26 29 26 29 31 32 37 46 64 43 39 52 62 62 74 80 81 80 85 78 72 74 65 71 79 55 30 31 337 329 335 330 343 349 315 283 284 284
23 20 17 26 27 28 30 31 38 47 49 55 67 51 34 64 66 64 65 62 82 80 68 55 52 58 77 68 59 60 70 44 8 337 322 324 329 331 314 310 308 305 305
21 20 19 13 16 23 31 32 35 49 53 58 66 38 39 69 67 71 75 74 79 71 51 51 63 69 91 77 68 67 42 3 354 338 314 304 310 313 314 312 326 332 328
18 12 14 14 28 27 27 31 43 49 51 47 39 37 52 71 66 68 77 80 75 68 72 63 67 67 68 57 42 30 6 347 355 14 12 348 330 328 320 322 314 329 337
25 28 31 31 26 25 28 41 59 50 49 43 45 50 63 72 69 73 81 87 79 79 66 56 61 61 46 41 35 31 31 25 359 350 337 323 316 306 323 325 325 334 324
32 30 39 38 38 40 40 34 32 32 35 37 48 57 63 70 63 64 72 73 67 85 58 53 66 55 43 45 42 354 301 280 283 292 297 303 299 314 315 313 315 311 298
28 25 23 20 14 7 9 12 26 36 44 49 61 62 61 63 56 51 42 30 20 23 31 16 8 19 23 19 20 8 346 349 329 305 310 316 309 309 300 302 302 309 310
18 15 18 22 29 23 31 40 48 54 56 64 68 63 58 53 45 34 20 12 17 25 354 358 357 1 6 4 358 353 360 1 342 338 316 312 304 316 311 297 287 283 304
15 18 26 21 7 8 18 35 57 68 66 75 70 62 56 53 45 43 54 41 29 358 335 338 339 345 354 347 345 348 348 355 358 17 322 327 344 345 266 286 285 283 279
0 12 16 16 16 19 33 32 47 73 81 81 72 57 52 47 38 36 46 52 46 31 14 357 347 337 335 349 1 15 11 21 42 44 39 40 35 28 20 2 347 321 292
7 359 6 9 359 7 15 35 58 70 92 101 84 60 38 33 28 36 39 38 28 6 349 348 7 23 40 59 63 42 29 42 57 50 42 32 27 42 62 51 39 30 30
14 4 358 1 14 8 21 38 54 71 89 87 161 354 358 6 15 25 28 19 20 12 63 68 73 79 88 68 56 50 47 51 52 49 37 28 39 67 57 42 36 49 79
1 356 348 341 332 326 339 24 35 45 32 32 13 9 9 12 21 23 18 17 11 65 72 73 75 80 75 69 61 49 46 47 46 42 32 28 41 53 52 45 44 41 57
347 348 343 335 340 338 265 265 14 22 35 43 35 15 6 29 29 11 359 17 32 68 75 68 69 66 62 48 46 49 39 40 37 40 31 31 36 44 45 50 48 38 36
339 341 336 328 333 340 325 242 233 224 357 58 51 41 38 34 23 22 56 57 83 77 72 61 71 68 59 41 46 54 44 39 37 50 34 28 35 39 42 63 52 37 32
326 329 338 344 337 339 342 254 240 236 236 243 248 2 13 25 31 39 59 69 74 77 60 46 77 69 51 50 72 59 41 36 37 47 39 30 31 40 48 76 51 35 30
318 330 339 335 336 337 333 315 244 242 246 251 265 257 333 356 30 38 46 20 61 50 55 62 72 64 70 77 59 39 25 21 35 39 43 35 28 37 47 78 55 38 30
324 332 338 336 335 341 359 243 236 236 240 242 283 240 291 233 185 67 60 59 56 52 77 82 81 77 74 57 34 19 17 30 36 37 39 36 28 35 36 66 63 44 37
334 336 333 334 338 317 299 10 83 234 228 221 248 167 135 149 149 144 101 82 66 69 92 85 74 54 40 29 20 20 23 34 38 39 42 36 30 31 32 69 66 47 42
327 327 333 338 335 303 293 17 99 169 206 210 206 187 172 195 178 173 157 131 112 76 101 81 41 10 2 7 12 19 26 38 35 34 34 34 31 27 34 75 67 57 45
322 328 331 339 346 273 245 238 255 262 197 216 218 214 224 205 194 187 186 185 160 148 117 11 6 8 5 2 6 11 18 25 28 27 32 36 30 30 36 71 58 52 51
302 318 329 344 343 336 269 263 258 228 215 191 207 217 221 207 200 199 200 207 204 202 225 314 353 6 9 4 3 5 9 15 18 15 25 34 25 27 35 60 60 49 58
286 300 318 326 313 342 343 282 245 220 213 197 201 205 209 213 209 209 210 210 216 216 226 269 342 4 7 3 359 0 1 2 3 5 7 24 10 22 33 45 63 55 60
273 290 310 323 321 342 294 323 336 235 222 210 209 206 206 227 213 206 206 213 223 221 222 236 277 331 350 355 353 353 357 355 355 1 355 17 14 8 23 28 52 62 60
265 274 294 307 319 328 339 336 314 308 240 220 216 210 217 229 215 208 207 214 226 222 217 234 247 304 341 348 348 349 349 349 354 11 36 16 3 3 24 21 33 91 59